SCP
0 0 0 0 0 0 0 0 0 0 0 0 0 0 0 0 0 0 0 0 0 0 0 0 0 0 0 0 0 0 0 0 0 0 0 0 0 0 0 0 0 0 0
0 0 0 0 0 0 0 0 0 0 0 0 0 0 0 0 0 0 0 0 0 0 0 0 0 0 0 0 0 0 0 0 0 0 0 0 0 0 0 0 0 0 0
0 0 0 0 0 0 0 0 0 0 0 0 0 0 0 0 0 0 0 0 0 0 0 0 0 0 0 0 0 0 0 0 0 0 0 0 0 0 0 0 0 0 0
0 0 0 0 0 0 0 0 0 0 0 0 0 0 0 0 0 0 0 0 0 0 0 0 0 0 0 0 0 0 0 0 0 0 0 0 0 0 0 0 0 0 0
0 0 0 0 0 0 0 0 0 0 0 0 0 0 0 0 0 0 0 0 0 0 0 0 0 0 0 0 0 0 0 0 0 0 0 0 0 0 0 0 0 0 0
0 0 0 0 0 0 0 0 0 0 0 0 0 0 0 0 0 0 0 0 0 0 0 0 0 0 0 0 0 0 0 0 0 0 0 0 0 0 0 0 0 0 0
0 0 0 0 0 0 0 0 0 0 0 0 0 0 0 0 0 0 0 0 0 0 0 0 0 0 0 0 0 0 0 0 0 0 0 0 0 0 0 0 0 0 0
0 0 0 0 0 0 0 0 0 0 0 0 0 0 0 0 0 0 0 0 0 0 0 0 0 0 0 0 0 0 0 0 0 0 0 0 0 0 0 0 0 0 0
0 0 0 0 0 0 0 0 0 0 0 0 0 0 0 0 0 0 0 0 0 0 0 0 0 0 0 0 0 0 0 0 0 0 0 0 0 0 0 0 0 0 0
0 0 0 0 0 0 0 0 0 0 0 0 0 0 0 0 0 0 0 0 0 0 0 0 0 0 0 0 0 0 0 0 0 0 0 0 0 0 0 0 0 0 0
0 0 0 0 0 0 0 0 0 0 0 0 0 0 0 0 0 0 0 0 0 0 0 0 0 0 0 0 0 0 0 0 0 0 0 0 0 0 0 0 0 0 0
0 0 0 0 0 0 0 0 0 0 0 0 0 0 0 0 0 0 0 0 0 0 0 0 0 0 0 0 0 0 0 0 0 0 0 0 0 0 0 0 0 0 0
0 0 0 0 0 0 0 0 0 0 0 0 0 0 0 0 0 0 0 0 0 0 0 0 0 0 0 0 0 0 0 0 0 0 0 0 0 0 0 0 0 0 0
0 0 0 0 0 0 0 0 0 0 0 0 0 0 0 0 0 0 0 0 0 0 0 0 0 0 0 0 0 0 0 0 0 0 0 0 0 0 0 0 0 0 0
0 0 0 0 0 0 0 0 0 0 0 0 0 0 0 0 0 0 0 0 0 0 0 0 0 0 0 0 0 0 0 0 0 0 0 0 0 0 0 0 0 0 0
0 0 0 0 0 0 0 0 0 0 0 0 0 0 0 0 0 0 0 0 0 0 0 0 0 0 0 0 0 0 0 0 0 0 0 0 0 0 0 0 0 0 0
0 0 0 0 0 0 0 0 0 0 0 0 0 0 0 0 0 0 0 0 0 0 0 0 0 0 0 0 0 0 0 0 0 0 0 0 0 0 0 0 0 0 0
0 0 0 0 0 0 0 0 0 0 0 0 0 0 0 0 0 0 0 0 0 0 0 0 0 0 0 0 0 0 0 0 0 0 0 0 0 0 0 0 0 0 0
0 0 0 0 0 0 0 0 0 0 0 0 0 0 0 0 0 0 0 0 0 0 0 0 0 0 0 0 0 0 0 0 0 0 0 0 0 0 0 0 0 0 0
0 0 0 0 0 0 0 0 0 0 0 0 0 0 0 0 0 0 0 0 0 0 0 0 0 0 0 0 0 0 0 0 0 0 0 0 0 0 0 0 0 0 0
0 0 0 0 0 0 0 0 0 0 0 0 0 0 0 0 0 0 0 0 0 0 0 0 0 0 0 0 0 0 0 0 0 0 0 0 0 0 0 0 0 0 0
0 0 0 0 0 0 0 0 0 0 0 0 0 0 0 0 0 0 0 0 0 0 0 0 0 0 0 0 0 0 0 0 0 0 0 0 0 0 0 0 0 0 0
0 0 0 0 0 0 0 0 0 0 0 0 0 0 0 0 0 0 0 0 0 0 0 0 0 0 0 0 0 0 0 0 0 0 0 0 0 0 0 0 0 0 0
-0 -0 -0 0 0 0 0 0 0 0 0 0 0 0 0 0 0 0 0 0 0 0 0 0 0 0 0 0 0 0 0 0 0 0 0 0 0 0 0 0 0 0 0
0 -0 0 0 0 0 0 0 0 0 0 0 0 0 0 0 0 0 0 0 0 0 0 0 0 0 0 0 0 0 0 0 0 0 0 0 0 0 0 0 0 0 0
0 0 0 0 0 0 0 0 0 0 0 0 0 0 0 0 0 0 0 0 0 0 0 0 0 0 0 0 0 0 0 0 0 0 0 0 0 0 0 0 0 0 0
Wind_Speed
6 6 7 7 8 8 8 9 9 8 9 9 9 8 8 8 7 7 6 6 6 5 4 5 5 4 3 3 3 3 3 3 3 3 2 2 2 3 2 2 3 4 5
5 5 6 7 7 8 9 9 9 9 9 9 8 8 8 8 8 8 8 7 7 7 6 5 5 4 4 3 3 4 3 4 3 4 2 2 3 3 2 3 3 4 5
5 5 5 6 7 8 8 8 8 9 8 8 8 9 8 8 8 8 8 7 8 7 7 7 6 5 5 4 4 4 3 3 3 3 3 2 2 1 2 2 3 3 4
4 5 5 6 6 6 7 7 8 8 8 8 8 8 8 8 7 8 7 7 7 7 7 7 7 7 6 6 5 5 4 3 3 3 3 2 2 2 1 2 3 2 3
4 4 4 5 5 5 5 6 7 7 8 7 7 7 6 6 7 8 8 8 7 7 6 6 6 7 8 7 5 5 5 4 3 3 3 2 2 2 3 2 3 3 3
3 3 4 4 5 5 5 5 5 5 5 6 6 6 6 5 7 10 8 7 6 6 6 5 5 5 7 8 8 7 7 6 5 4 4 4 5 4 3 3 3 3 4
3 3 4 4 5 6 6 6 5 5 4 5 5 5 5 4 6 8 9 6 5 5 5 4 4 4 5 4 5 7 7 9 8 6 6 6 5 5 4 4 4 5 5
3 3 3 4 4 5 5 5 5 4 4 4 4 4 3 3 5 6 7 5 4 4 4 4 4 3 3 4 4 4 4 5 7 6 6 6 6 5 5 5 4 4 5
3 3 3 4 5 5 5 5 4 4 4 4 3 3 3 1 2 5 6 4 3 3 3 2 3 3 3 4 4 4 4 4 4 5 5 5 5 4 3 2 3 3 5
1 2 2 4 5 5 5 5 4 5 4 4 4 3 3 1 2 2 5 3 3 2 1 1 1 2 1 2 3 3 3 3 2 1 1 2 3 3 3 4 4 4 4
3 3 3 4 5 5 5 5 5 5 5 5 4 4 4 3 4 4 3 3 3 2 1 1 1 2 2 1 1 1 3 2 1 0 1 2 2 2 2 1 2 3 4
5 6 5 5 5 5 6 6 6 6 6 5 5 4 4 4 5 5 6 5 3 3 2 1 2 4 4 3 2 1 1 1 1 1 1 2 2 2 3 2 2 3 3
8 8 8 8 7 7 7 6 6 5 5 5 4 4 4 4 5 7 7 7 6 4 4 6 6 6 6 5 6 5 3 2 2 2 2 2 2 3 3 3 3 3 3
10 9 8 9 9 9 7 6 6 5 5 5 5 4 4 4 4 3 3 4 5 4 4 6 7 8 6 6 5 5 4 3 2 2 2 2 3 3 3 3 3 3 3
10 9 9 8 9 10 10 8 8 7 5 5 4 4 4 4 4 5 4 4 3 4 4 5 5 5 5 5 5 4 4 4 3 3 2 3 3 3 3 3 2 3 3
9 8 7 7 7 7 9 10 16 13 16 14 10 8 7 7 7 9 10 10 9 8 7 6 5 5 4 4 4 4 4 4 4 3 3 3 3 3 3 3 3 3 4
9 7 6 6 6 6 6 8 8 10 15 16 14 13 11 10 11 11 11 12 11 9 7 5 5 4 4 4 4 4 4 4 3 4 3 3 3 4 4 4 4 4 4
9 9 8 6 6 6 6 6 6 7 7 7 10 13 12 12 12 11 9 9 9 8 6 5 4 4 4 3 3 3 3 4 4 4 4 4 4 4 4 4 4 5 5
8 7 7 7 7 7 7 7 7 8 7 6 6 7 10 10 11 12 10 7 6 6 5 5 4 4 4 4 4 3 4 4 4 4 4 4 4 4 4 4 5 6 5
8 13 10 7 7 8 7 7 7 7 7 7 6 5 5 6 7 7 7 6 5 5 4 4 4 4 4 4 4 4 4 4 4 4 4 4 4 4 5 6 5 5 5
7 9 12 9 8 7 7 7 7 7 7 6 6 6 7 6 6 6 5 5 4 4 3 3 3 4 4 4 4 4 5 4 4 4 4 4 5 5 5 5 5 6 6
7 7 7 8 7 7 7 7 7 7 7 7 6 6 9 6 5 5 5 4 4 3 3 3 3 3 3 4 4 4 4 4 5 5 5 5 5 5 5 5 5 6 6
7 8 8 8 7 8 8 7 6 6 6 6 5 5 5 5 5 5 5 4 4 4 4 4 4 4 4 4 4 4 4 5 5 5 5 5 5 5 5 6 7 7 7
8 8 8 7 7 7 7 6 6 6 6 6 5 5 5 4 4 5 4 4 4 4 5 4 5 6 7 6 4 4 4 5 6 5 6 6 6 6 5 6 7 8 7
7 7 7 6 6 6 6 6 6 6 6 5 5 4 4 4 4 5 4 4 5 5 5 5 4 5 7 8 7 6 7 8 6 6 5 5 6 6 6 7 6 7 7
7 7 6 6 6 6 6 5 5 5 5 4 4 4 4 4 4 4 4 4 4 4 4 4 6 7 7 6 8 9 8 8 8 7 5 4 5 5 6 6 7 6 7
Wind_Direction
186 189 190 189 188 185 187 188 186 182 178 178 179 179 181 183 179 179 184 181 184 189 190 190 202 192 193 194 187 185 189 181 216 259 253 266 260 264 265 243 243 243 248
180 182 185 182 184 188 191 187 181 181 181 179 175 180 186 187 184 186 192 189 188 191 195 194 205 196 197 196 192 196 196 193 201 239 255 257 253 261 266 264 258 250 249
170 175 176 176 181 186 186 179 177 179 178 176 177 185 189 189 190 192 192 192 196 197 195 199 206 196 204 202 201 204 204 199 199 218 246 251 266 270 271 271 269 265 261
158 170 175 179 178 177 176 173 175 177 175 178 184 188 190 190 192 193 193 195 199 201 200 202 204 200 206 203 205 208 201 196 195 212 239 250 257 264 253 265 277 265 270
151 162 172 170 162 157 159 165 168 172 175 177 180 185 188 189 197 194 194 197 198 199 200 203 209 207 209 206 206 204 197 200 202 214 232 237 243 237 241 243 260 278 271
150 162 157 154 154 156 158 159 163 166 166 166 179 184 186 196 197 194 192 194 194 197 201 207 213 216 218 215 215 207 198 203 209 213 225 233 243 237 238 238 249 267 277
143 142 148 156 160 161 159 156 162 164 159 163 175 176 183 192 188 190 190 186 190 196 200 202 213 216 210 215 218 219 220 222 213 209 226 236 240 231 224 238 236 242 254
141 146 151 153 155 152 152 155 155 147 151 155 155 163 168 184 183 183 179 177 179 189 195 201 209 226 224 213 219 226 235 236 228 224 231 241 244 238 224 234 245 254 261
144 157 161 158 154 150 155 151 143 136 133 129 125 134 140 153 176 176 170 165 172 188 193 195 202 225 246 219 215 230 250 263 248 232 235 250 261 260 234 226 235 244 266
129 131 141 150 154 155 153 141 132 131 132 125 112 105 111 85 55 150 168 162 167 172 160 164 176 197 231 207 212 223 244 267 272 277 271 288 288 289 246 227 238 243 258
81 86 92 114 126 130 124 118 121 121 118 112 104 87 77 64 57 74 138 159 168 157 148 118 77 104 103 98 176 210 233 239 257 338 356 353 354 345 327 274 249 244 251
79 77 77 84 97 104 108 107 110 115 113 109 103 90 72 63 59 66 84 96 107 117 115 97 84 89 86 74 81 71 64 72 52 42 26 0 347 338 328 322 305 280 266
75 72 72 76 75 78 88 93 91 94 99 97 93 84 67 55 50 56 69 79 85 93 83 82 79 75 69 59 51 49 51 62 63 47 14 345 331 328 334 331 332 325 301
79 75 74 76 73 68 67 69 76 78 88 92 92 89 79 63 45 36 55 73 79 86 79 70 69 67 65 55 47 45 47 50 60 48 8 345 344 352 355 347 335 334 319
76 76 75 77 82 75 68 58 63 54 69 89 87 86 84 71 41 58 78 75 81 93 91 71 61 56 54 47 44 42 39 37 36 26 15 1 352 352 348 347 338 331 319
81 75 76 79 82 86 89 76 60 66 64 65 68 79 70 72 76 77 76 72 72 85 84 71 64 59 53 43 37 31 29 25 17 16 13 0 346 340 336 338 334 324 318
86 84 81 82 86 88 90 95 88 67 61 59 59 66 73 71 69 74 78 75 67 73 75 70 64 57 50 45 39 33 23 13 12 16 11 359 349 345 342 338 333 326 321
84 85 85 82 83 86 86 86 88 90 79 60 51 57 64 66 63 62 68 75 62 58 63 63 58 51 44 40 34 27 18 13 12 6 359 354 349 344 339 332 326 321 317
81 82 83 83 81 82 83 83 82 81 80 74 65 53 53 64 61 53 56 65 68 62 59 57 53 47 40 34 27 19 14 9 4 355 350 347 342 336 330 324 318 318 315
76 84 85 83 81 79 79 81 81 80 78 71 63 51 41 54 58 50 52 58 62 60 57 54 47 41 34 26 16 8 4 1 355 350 344 340 334 327 324 322 320 317 314
81 83 83 81 79 80 81 81 81 80 76 72 61 48 53 66 63 56 52 51 53 52 49 46 40 31 23 15 7 0 357 352 348 342 338 333 328 324 321 318 317 314 311
83 82 81 83 82 81 81 81 81 81 79 76 66 55 52 60 60 56 49 44 41 40 41 44 39 28 16 7 358 352 348 345 343 337 329 325 321 319 317 316 317 317 316
86 88 85 83 85 85 82 78 78 78 76 73 69 62 56 55 53 50 45 38 35 33 31 33 33 23 13 7 4 356 344 337 330 322 318 318 319 317 316 314 313 314 313
87 89 90 87 86 86 85 81 78 77 76 72 66 61 56 51 49 48 44 39 38 36 32 29 28 19 12 6 1 357 349 335 326 315 311 306 308 309 310 310 310 311 311
87 88 89 90 90 89 87 83 79 76 72 68 64 59 54 52 48 43 38 35 35 33 27 22 17 13 9 5 2 355 345 336 328 323 311 302 303 306 309 310 313 314 315
89 90 89 89 89 90 90 88 83 80 75 70 65 60 54 49 44 39 34 30 26 22 19 15 12 10 5 3 358 352 343 339 336 329 317 308 309 312 318 313 317 318 319